Weather in Saint-Emilion

France     44°53′38″N   0°09′21″E
temp.,
°C
wind,
m/s
gust,
m/s
humid.,
%
clouds,
%
prec.,
mm/h
press.,
hPa
HPBL,
m
24 january, sun
sun2401:00+5n2491100 1.8 1001201
04:00+4wnw2394100 0.1 100560
07:00+4w2594100 0.1 1007180
10:00+6ssw479095 0.0 1008311
13:00+7sw499096 1.3 1007589
16:00+10w7147288 0.9 10061535
19:00+8wnw399194 1.4 1005740
22:00+7w41087100 0.4 1007566
25 january, mon
mon2501:00+7wnw41083100 0.8 1008837
04:00+6wnw3984100 0.1 1009607
07:00+5nw1286100 0.1 100924
10:00+6nw1178100 0.0 101153
13:00+8n3465100 0.0 1012813
16:00+7nnw356475 0.0 10131010
19:00+3n238238 0.0 101654
22:00+2nne23890 0.0 101958
26 january, tue
tue2601:00+1ene22900 0.0 102125
04:000ene23860 0.0 102264
07:00−1ese238717 0.0 102356
10:00+2ese36768 0.0 1023207
13:00+6se355643 0.0 1023406
16:00+7se366089 0.0 1021441
19:00+4sse367395 0.0 1021136
22:00+5s2669100 0.0 1021188
27 january, wed
wed2701:00+5sse2283100 0.3 102073
04:00+6s129499 0.0 102027
07:00+8s119999 0.0 102026
10:00+10w2399100 0.0 102179
13:00+14wsw3583100 0.0 1022613
16:00+12wsw2591100 0.3 1021190
19:00+12sw3998100 0.8 1021370
22:00+12wsw4997100 0.0 1020397
28 january, thu
thu2801:00+13wsw41096100 0.1 1020527
04:00+12sw499792 0.1 1018432
07:00+12sw4119596 0.3 1018491
10:00+13wsw41289100 0.1 1018756
13:00+15w51181100 0.2 1019987
16:00+15wsw31179100 0.6 10171148
19:00+13sw41190100 1.8 1017565
22:00+12sw2592100 1.1 1016148